TimeEDT,TemperatureF,Dew PointF,Humidity,Sea Level PressureIn,VisibilityMPH,Wind Direction,Wind SpeedMPH,Gust SpeedMPH,PrecipitationIn,Events,Conditions,WindDirDegrees,DateUTC
12:53 AM,66.0,60.1,81,30.25,10.0,Calm,Calm,-,N/A,,Mostly Cloudy,0,2013-08-18 04:53:00
1:53 AM,64.0,60.1,87,30.23,10.0,Calm,Calm,-,0.00,Rain,Light Rain,0,2013-08-18 05:53:00
2:53 AM,63.0,61.0,93,30.23,8.0,Calm,Calm,-,0.02,Rain,Light Rain,0,2013-08-18 06:53:00
3:53 AM,64.0,61.0,90,30.22,8.0,Calm,Calm,-,0.02,Rain,Light Rain,0,2013-08-18 07:53:00
4:53 AM,64.0,60.1,87,30.23,10.0,NW,4.6,-,0.02,Rain,Light Rain,320,2013-08-18 08:53:00
5:53 AM,64.0,59.0,84,30.23,9.0,Calm,Calm,-,0.01,Rain,Light Rain,0,2013-08-18 09:53:00
6:53 AM,63.0,59.0,87,30.24,10.0,NNW,3.5,-,0.01,Rain,Light Rain,340,2013-08-18 10:53:00
7:53 AM,64.0,57.9,80,30.25,10.0,Calm,Calm,-,0.00,Rain,Light Rain,0,2013-08-18 11:53:00
8:53 AM,64.0,59.0,84,30.27,9.0,North,4.6,-,0.01,Rain,Light Rain,360,2013-08-18 12:53:00
9:53 AM,64.0,57.9,80,30.28,10.0,North,6.9,-,0.02,Rain,Light Rain,360,2013-08-18 13:53:00
10:53 AM,63.0,59.0,87,30.28,7.0,North,5.8,-,0.02,Rain,Light Rain,360,2013-08-18 14:53:00
11:53 AM,64.0,59.0,84,30.26,10.0,North,5.8,-,0.01,Rain,Light Rain,360,2013-08-18 15:53:00
12:53 PM,64.0,57.9,80,30.26,10.0,North,6.9,-,0.02,Rain,Light Rain,350,2013-08-18 16:53:00
1:53 PM,64.9,59.0,81,30.25,10.0,NNW,8.1,-,0.02,Rain,Light Rain,340,2013-08-18 17:53:00
2:42 PM,66.2,57.2,73,30.25,10.0,NW,8.1,-,0.00,,Overcast,320,2013-08-18 18:42:00
2:53 PM,66.0,57.9,75,30.24,10.0,NNW,6.9,-,0.00,,Overcast,340,2013-08-18 18:53:00
3:53 PM,68.0,55.9,65,30.23,10.0,North,5.8,-,0.00,,Overcast,10,2013-08-18 19:53:00
4:53 PM,69.1,57.0,65,30.21,10.0,NNW,4.6,-,N/A,,Scattered Clouds,340,2013-08-18 20:53:00
5:53 PM,69.1,55.0,61,30.21,10.0,Calm,Calm,-,N/A,,Overcast,0,2013-08-18 21:53:00
6:53 PM,69.1,55.9,63,30.20,10.0,Calm,Calm,-,N/A,,Clear,0,2013-08-18 22:53:00
7:53 PM,66.0,57.0,73,30.20,10.0,Calm,Calm,-,N/A,,Clear,0,2013-08-18 23:53:00
8:51 PM,62.6,57.2,82,30.21,10.0,SSW,3.5,-,N/A,,Mostly Cloudy,200,2013-08-19 00:51:00
8:53 PM,63.0,59.0,87,30.20,10.0,Calm,Calm,-,N/A,,Mostly Cloudy,0,2013-08-19 00:53:00
9:13 PM,62.6,59.0,88,30.21,10.0,Calm,Calm,-,N/A,,Scattered Clouds,0,2013-08-19 01:13:00
9:53 PM,64.0,59.0,84,30.20,10.0,Calm,Calm,-,N/A,,Clear,0,2013-08-19 01:53:00
10:53 PM,62.1,59.0,90,30.20,10.0,Calm,Calm,-,N/A,,Clear,0,2013-08-19 02:53:00
11:53 PM,61.0,57.9,90,30.20,10.0,Calm,Calm,-,N/A,,Clear,0,2013-08-19 03:53:00